Darstellungsparameter: Aktuell verwendete Einstellungen:
Skalierung der Graphiken ... ?
xyx+y,   Skalierungsfaktor:      Skalierung: Modus: x, Faktor: 1
Darstellungszeitraum ... ?
Vom - - bis: - -   Zeitraum: 18.05.2021 - 19.05.2021
Min/Max/Avg-Anzeige ... ?
Zeige MMA aktuell
Zeige MMA Monat
Zeige MMA alles
Zeige --A aktuell
Zeige --A Monat
Zeige --A alles
Keine MMA-Anzeige
MMA:
Minimum Maximum Average (ber die Originaldaten)
MMA-Basis: 14.04.2020 - 16.05.2020
Quicknavigation für Darstellung... ?
Tage:      1T, 2T, 3T, 5T -1T -2T -3T -5T +1T +2T +3T +5T
Wochen: 1W, 2W, 3W -1W -2W -3W +1W +2W +3W
Monate: 1M, 3M, 6M -1M -3M -6M +1M +3M +6M
Jahre:    1J, 3J, 5J, 10J -1J -3J -5J -10J +1J +3J +5J +10J
Nutze für die Darstellung ... ?
Originaldaten oder Mittelwerte auf ...
Stundenbasis Tagesbasis Wochenbasis
Monatsbasis Jahresbasis      Datenbasis: Original-Daten
Darstellen als:
Statistik (Auto) Statistik J:M      Darstellung:

Der gewünschte Datumsbereich war nicht gültig/verfügbar und wurde korrigiert....
Das angegebene Enddatum (13.11.2023 23:59:59) liegt in der Zukunft.
Das angegebene Startdatum (14.05.2023 00:00:00) liegt in der Zukunft.


Zur Graphik,    zurück zur Übersicht aller Sensoren.
 
Tabellarische Datenbersicht: ?
 
Sensor: Nr:Datum:Temp:Abs-Feuchte:Windchill:Wind:
Aussen-T/F 1 18-05-2021 02:00:00 10.9 C 8.85 g/m*3 10.04 C 8.1 km/h
2 18-05-2021 02:05:00 10.9 C 8.95 g/m*3 10.9 C 4.8 km/h
3 18-05-2021 02:10:00 10.9 C 8.95 g/m*3 10.9 C 3.2 km/h
4 18-05-2021 02:15:00 10.8 C 8.9 g/m*3 10.8 C 4.8 km/h
5 18-05-2021 02:20:00 10.8 C 8.9 g/m*3 10.8 C 3.2 km/h
6 18-05-2021 02:25:00 10.7 C 8.94 g/m*3 10.7 C 3.2 km/h
7 18-05-2021 02:30:00 10.7 C 8.94 g/m*3 10.7 C 1.6 km/h
8 18-05-2021 02:35:00 10.6 C 8.88 g/m*3 10.6 C 1.6 km/h
9 18-05-2021 02:40:00 10.5 C 8.92 g/m*3 10.5 C 3.2 km/h
10 18-05-2021 02:45:00 10.4 C 8.87 g/m*3 10.4 C 4.8 km/h
11 18-05-2021 02:50:00 10.3 C 8.81 g/m*3 10.3 C 4.8 km/h
12 18-05-2021 02:55:00 10.2 C 8.76 g/m*3 9.6 C 6.4 km/h
13 18-05-2021 03:00:00 10.2 C 8.76 g/m*3 10.2 C 1.6 km/h
14 18-05-2021 03:05:00 10.2 C 8.76 g/m*3 10.2 C 3.2 km/h
15 18-05-2021 03:10:00 10.1 C 8.7 g/m*3 10.1 C 3.2 km/h
16 18-05-2021 03:15:00 10.1 C 8.79 g/m*3 10.1 C 4.8 km/h
17 18-05-2021 03:20:00 10 C 8.74 g/m*3 10 C 3.2 km/h
18 18-05-2021 03:25:00 9.9 C 8.68 g/m*3 9.9 C 4.8 km/h
19 18-05-2021 03:30:00 9.8 C 8.63 g/m*3 9.8 C 3.2 km/h
20 18-05-2021 03:35:00 9.8 C 8.63 g/m*3 9.8 C 1.6 km/h
21 18-05-2021 03:40:00 9.8 C 8.63 g/m*3 9.8 C 4.8 km/h
22 18-05-2021 03:45:00 9.7 C 8.57 g/m*3 9.7 C 3.2 km/h
23 18-05-2021 03:50:00 9.7 C 8.57 g/m*3 9.02 C 6.4 km/h
24 18-05-2021 03:55:00 9.7 C 8.57 g/m*3 9.7 C 4.8 km/h
25 18-05-2021 04:00:00 9.6 C 8.52 g/m*3 8.52 C 8.1 km/h
Sensor: Nr:Datum:Temp:Abs-Feuchte:Windchill:Wind:
Aussen-T/F 26 18-05-2021 04:05:00 9.5 C 8.47 g/m*3 8.79 C 6.4 km/h
27 18-05-2021 04:10:00 9.4 C 8.41 g/m*3 9.4 C 4.8 km/h
28 18-05-2021 04:15:00 9.4 C 8.41 g/m*3 9.4 C 3.2 km/h
29 18-05-2021 04:20:00 9.3 C 8.36 g/m*3 8.56 C 6.4 km/h
30 18-05-2021 04:25:00 9.3 C 8.36 g/m*3 7.58 C 11.3 km/h
31 18-05-2021 04:30:00 9.3 C 8.36 g/m*3 8.56 C 6.4 km/h
32 18-05-2021 04:35:00 9.3 C 8.36 g/m*3 8.16 C 8.1 km/h
33 18-05-2021 04:40:00 9.4 C 8.41 g/m*3 9.4 C 4.8 km/h
34 18-05-2021 04:45:00 9.4 C 8.41 g/m*3 9.4 C 3.2 km/h
35 18-05-2021 04:50:00 9.4 C 8.41 g/m*3 9.4 C 1.6 km/h
36 18-05-2021 04:55:00 9.4 C 8.41 g/m*3 9.4 C 4.8 km/h
37 18-05-2021 05:00:00 9.3 C 8.36 g/m*3 9.3 C 1.6 km/h
38 18-05-2021 05:05:00 9.3 C 8.36 g/m*3 9.3 C 3.2 km/h
39 18-05-2021 05:10:00 9.2 C 8.3 g/m*3 9.2 C 3.2 km/h
40 18-05-2021 05:15:00 9.2 C 8.3 g/m*3 9.2 C 1.6 km/h
41 18-05-2021 05:20:00 9.3 C 8.45 g/m*3 8.56 C 6.4 km/h
42 18-05-2021 05:25:00 9.3 C 8.45 g/m*3 8.16 C 8.1 km/h
43 18-05-2021 05:30:00 9.4 C 8.41 g/m*3 9.4 C 3.2 km/h
44 18-05-2021 05:35:00 9.4 C 8.41 g/m*3 9.4 C 3.2 km/h
45 18-05-2021 05:40:00 9.4 C 8.41 g/m*3 9.4 C 3.2 km/h
46 18-05-2021 05:45:00 9.4 C 8.41 g/m*3 9.4 C 3.2 km/h
47 18-05-2021 05:50:00 9.4 C 8.41 g/m*3 9.4 C 3.2 km/h
48 18-05-2021 05:55:00 9.3 C 8.36 g/m*3 8.56 C 6.4 km/h
49 18-05-2021 06:00:00 9.3 C 8.36 g/m*3 8.56 C 6.4 km/h
50 18-05-2021 06:05:00 9.2 C 8.3 g/m*3 8.45 C 6.4 km/h
Sensor: Nr:Datum:Temp:Abs-Feuchte:Windchill:Wind:
Aussen-T/F 51 18-05-2021 06:10:00 9.1 C 8.16 g/m*3 9.1 C 3.2 km/h
52 18-05-2021 06:15:00 9.1 C 8.16 g/m*3 9.1 C 3.2 km/h
53 18-05-2021 06:20:00 9 C 8.2 g/m*3 9 C 1.6 km/h
54 18-05-2021 06:25:00 8.9 C 8.15 g/m*3 8.9 C 1.6 km/h
55 18-05-2021 06:30:00 8.8 C 8.09 g/m*3 8.8 C 1.6 km/h
56 18-05-2021 06:35:00 8.8 C 8.09 g/m*3 8.8 C 0 km/h
57 18-05-2021 06:40:00 8.8 C 8.09 g/m*3 8.8 C 3.2 km/h
58 18-05-2021 06:45:00 8.8 C 8.09 g/m*3 8.8 C 3.2 km/h
59 18-05-2021 06:50:00 8.9 C 8.23 g/m*3 8.9 C 4.8 km/h
60 18-05-2021 06:55:00 9 C 8.29 g/m*3 9 C 1.6 km/h
61 18-05-2021 07:00:00 9.1 C 8.34 g/m*3 9.1 C 0 km/h
62 18-05-2021 07:05:00 9.1 C 8.34 g/m*3 9.1 C 0 km/h
63 18-05-2021 07:10:00 9.2 C 8.39 g/m*3 9.2 C 1.6 km/h
64 18-05-2021 07:15:00 9.2 C 8.39 g/m*3 9.2 C 1.6 km/h
65 18-05-2021 07:20:00 9.3 C 8.45 g/m*3 8.56 C 6.4 km/h
66 18-05-2021 07:25:00 9.4 C 8.5 g/m*3 9.4 C 3.2 km/h
67 18-05-2021 07:30:00 9.5 C 8.56 g/m*3 9.5 C 3.2 km/h
68 18-05-2021 07:35:00 9.7 C 8.67 g/m*3 9.02 C 6.4 km/h
69 18-05-2021 07:40:00 9.8 C 8.72 g/m*3 8.45 C 9.7 km/h
70 18-05-2021 07:45:00 10.1 C 8.89 g/m*3 8.8 C 9.7 km/h
71 18-05-2021 07:50:00 10.2 C 8.85 g/m*3 10.2 C 3.2 km/h
72 18-05-2021 07:55:00 10.3 C 8.91 g/m*3 10.3 C 3.2 km/h
73 18-05-2021 08:00:00 10.4 C 8.96 g/m*3 9.83 C 6.4 km/h
74 18-05-2021 08:05:00 10.5 C 8.92 g/m*3 8.4 C 16.1 km/h
75 18-05-2021 08:10:00 10.8 C 8.99 g/m*3 8.78 C 16.1 km/h
Sensor: Nr:Datum:Temp:Abs-Feuchte:Windchill:Wind:
Aussen-T/F 76 18-05-2021 08:15:00 11 C 9.01 g/m*3 10.16 C 8.1 km/h
77 18-05-2021 08:20:00 11.1 C 8.96 g/m*3 11.1 C 9.7 km/h
78 18-05-2021 08:25:00 11.2 C 9.02 g/m*3 11.2 C 9.7 km/h
79 18-05-2021 08:30:00 11.3 C 8.98 g/m*3 11.3 C 11.3 km/h
80 18-05-2021 08:35:00 11.3 C 8.98 g/m*3 11.3 C 6.4 km/h
81 18-05-2021 08:40:00 11.4 C 9.03 g/m*3 11.4 C 8.1 km/h
82 18-05-2021 08:45:00 11.5 C 9.09 g/m*3 11.5 C 4.8 km/h
83 18-05-2021 08:50:00 11.7 C 9.1 g/m*3 11.7 C 12.9 km/h
84 18-05-2021 08:55:00 11.8 C 9.05 g/m*3 11.8 C 11.3 km/h
85 18-05-2021 09:00:00 12 C 9.17 g/m*3 12 C 9.7 km/h
86 18-05-2021 09:05:00 12.1 C 9.12 g/m*3 12.1 C 9.7 km/h
87 18-05-2021 09:10:00 12.1 C 9.01 g/m*3 12.1 C 12.9 km/h
88 18-05-2021 09:15:00 12.1 C 9.01 g/m*3 12.1 C 16.1 km/h
89 18-05-2021 09:20:00 11.9 C 8.9 g/m*3 11.9 C 14.5 km/h
90 18-05-2021 09:25:00 11.8 C 9.05 g/m*3 11.8 C 9.7 km/h
91 18-05-2021 09:30:00 11.7 C 9.1 g/m*3 11.7 C 12.9 km/h
92 18-05-2021 09:35:00 11.5 C 9.09 g/m*3 11.5 C 9.7 km/h
93 18-05-2021 09:40:00 11.3 C 9.08 g/m*3 11.3 C 6.4 km/h
94 18-05-2021 09:45:00 11.1 C 8.86 g/m*3 11.1 C 14.5 km/h
95 18-05-2021 09:50:00 10.7 C 8.64 g/m*3 8.84 C 14.5 km/h
96 18-05-2021 09:55:00 10.6 C 8.69 g/m*3 10.06 C 6.4 km/h
97 18-05-2021 10:00:00 10.6 C 8.78 g/m*3 10.6 C 4.8 km/h
98 18-05-2021 10:05:00 10.5 C 8.83 g/m*3 9.57 C 8.1 km/h
99 18-05-2021 10:10:00 10.4 C 8.77 g/m*3 9.83 C 6.4 km/h
100 18-05-2021 10:15:00 10.3 C 8.71 g/m*3 9.34 C 8.1 km/h
Sensor: Nr:Datum:Temp:Abs-Feuchte:Windchill:Wind:
Aussen-T/F 101 18-05-2021 10:20:00 10.3 C 8.81 g/m*3 9.04 C 9.7 km/h
102 18-05-2021 10:25:00 10.2 C 8.76 g/m*3 9.22 C 8.1 km/h
103 18-05-2021 10:30:00 10.2 C 8.76 g/m*3 9.22 C 8.1 km/h
104 18-05-2021 10:35:00 10.1 C 8.7 g/m*3 8.8 C 9.7 km/h
105 18-05-2021 10:40:00 10.1 C 8.7 g/m*3 9.48 C 6.4 km/h
106 18-05-2021 10:45:00 10.1 C 8.7 g/m*3 9.1 C 8.1 km/h
107 18-05-2021 10:50:00 10.2 C 8.76 g/m*3 9.6 C 6.4 km/h
108 18-05-2021 10:55:00 10.3 C 8.91 g/m*3 9.04 C 9.7 km/h
109 18-05-2021 11:00:00 10.4 C 8.96 g/m*3 9.46 C 8.1 km/h
110 18-05-2021 11:05:00 10.6 C 9.08 g/m*3 10.06 C 6.4 km/h
111 18-05-2021 11:10:00 10.6 C 9.08 g/m*3 9.69 C 8.1 km/h
112 18-05-2021 11:15:00 10.8 C 9.19 g/m*3 10.8 C 4.8 km/h
113 18-05-2021 11:20:00 10.8 C 9.19 g/m*3 10.29 C 6.4 km/h
114 18-05-2021 11:25:00 11 C 9.31 g/m*3 11 C 4.8 km/h
115 18-05-2021 11:30:00 11.1 C 9.27 g/m*3 11.1 C 11.3 km/h
116 18-05-2021 11:35:00 11.1 C 9.17 g/m*3 11.1 C 16.1 km/h
117 18-05-2021 11:40:00 11.1 C 9.17 g/m*3 11.1 C 11.3 km/h
118 18-05-2021 11:45:00 11 C 9.01 g/m*3 9.63 C 11.3 km/h
119 18-05-2021 11:50:00 10.9 C 8.95 g/m*3 10.04 C 8.1 km/h
120 18-05-2021 11:55:00 10.9 C 8.95 g/m*3 9.76 C 9.7 km/h
121 18-05-2021 12:00:00 10.9 C 8.95 g/m*3 10.04 C 8.1 km/h
122 18-05-2021 12:05:00 10.9 C 8.95 g/m*3 9.51 C 11.3 km/h
123 18-05-2021 12:10:00 11 C 9.01 g/m*3 9.88 C 9.7 km/h
124 18-05-2021 12:15:00 11.2 C 9.12 g/m*3 11.2 C 9.7 km/h
125 18-05-2021 12:20:00 11.5 C 9.19 g/m*3 11.5 C 12.9 km/h
Sensor: Nr:Datum:Temp:Abs-Feuchte:Windchill:Wind:
Aussen-T/F 126 18-05-2021 12:25:00 11.7 C 9.31 g/m*3 11.7 C 12.9 km/h
127 18-05-2021 12:30:00 11.9 C 9.21 g/m*3 11.9 C 11.3 km/h
128 18-05-2021 12:35:00 12.1 C 9.22 g/m*3 12.1 C 20.9 km/h
129 18-05-2021 12:40:00 12.1 C 9.22 g/m*3 12.1 C 14.5 km/h
130 18-05-2021 12:45:00 12.2 C 9.17 g/m*3 12.2 C 16.1 km/h
131 18-05-2021 12:50:00 12.2 C 9.06 g/m*3 12.2 C 12.9 km/h
132 18-05-2021 12:55:00 12.2 C 9.17 g/m*3 12.2 C 11.3 km/h
133 18-05-2021 13:00:00 12.3 C 9.01 g/m*3 12.3 C 16.1 km/h
134 18-05-2021 13:05:00 12.6 C 9.29 g/m*3 12.6 C 11.3 km/h
135 18-05-2021 13:10:00 12.9 C 9.35 g/m*3 12.9 C 14.5 km/h
136 18-05-2021 13:15:00 13.2 C 9.3 g/m*3 13.2 C 17.7 km/h
137 18-05-2021 13:20:00 13.3 C 9.24 g/m*3 13.3 C 14.5 km/h
138 18-05-2021 13:25:00 13.6 C 9.3 g/m*3 13.6 C 14.5 km/h
139 18-05-2021 13:30:00 13.9 C 9.59 g/m*3 13.9 C 11.3 km/h
140 18-05-2021 13:35:00 14.1 C 9.59 g/m*3 14.1 C 14.5 km/h
141 18-05-2021 13:40:00 14.2 C 9.77 g/m*3 14.2 C 12.9 km/h
142 18-05-2021 13:45:00 14.4 C 9.52 g/m*3 14.4 C 14.5 km/h
143 18-05-2021 13:50:00 14.5 C 9.45 g/m*3 14.5 C 17.7 km/h
144 18-05-2021 13:55:00 14.3 C 8.97 g/m*3 14.3 C 16.1 km/h
145 18-05-2021 14:00:00 13.5 C 8.77 g/m*3 13.5 C 14.5 km/h
146 18-05-2021 14:05:00 12.6 C 8.63 g/m*3 12.6 C 11.3 km/h
147 18-05-2021 14:10:00 12 C 8.74 g/m*3 12 C 9.7 km/h
148 18-05-2021 14:15:00 11.6 C 8.83 g/m*3 11.6 C 6.4 km/h
149 18-05-2021 14:20:00 11.4 C 8.83 g/m*3 11.4 C 1.6 km/h
150 18-05-2021 14:25:00 11.3 C 8.98 g/m*3 11.3 C 4.8 km/h
Sensor: Nr:Datum:Temp:Abs-Feuchte:Windchill:Wind:
Aussen-T/F 151 18-05-2021 14:30:00 11.3 C 9.08 g/m*3 11.3 C 0 km/h
152 18-05-2021 14:35:00 11.3 C 9.28 g/m*3 11.3 C 6.4 km/h
153 18-05-2021 14:40:00 11.4 C 9.34 g/m*3 11.4 C 8.1 km/h
154 18-05-2021 14:45:00 11.7 C 9.62 g/m*3 11.7 C 8.1 km/h
155 18-05-2021 14:50:00 11.7 C 9.52 g/m*3 11.7 C 6.4 km/h
156 18-05-2021 14:55:00 11.7 C 9.41 g/m*3 11.7 C 9.7 km/h
157 18-05-2021 15:00:00 11.4 C 9.14 g/m*3 11.4 C 8.1 km/h
158 18-05-2021 15:05:00 11.2 C 9.12 g/m*3 11.2 C 6.4 km/h
159 18-05-2021 15:10:00 11.2 C 9.12 g/m*3 11.2 C 1.6 km/h
160 18-05-2021 15:15:00 11.2 C 9.22 g/m*3 11.2 C 8.1 km/h
161 18-05-2021 15:20:00 11.2 C 9.33 g/m*3 11.2 C 8.1 km/h
162 18-05-2021 15:25:00 11.2 C 9.33 g/m*3 11.2 C 8.1 km/h
163 18-05-2021 15:30:00 11.2 C 9.33 g/m*3 11.2 C 6.4 km/h
164 18-05-2021 15:35:00 11.2 C 9.43 g/m*3 11.2 C 1.6 km/h
165 18-05-2021 15:40:00 11.3 C 9.49 g/m*3 11.3 C 1.6 km/h
166 18-05-2021 15:45:00 11.4 C 9.55 g/m*3 11.4 C 1.6 km/h
167 18-05-2021 15:50:00 11.5 C 9.61 g/m*3 11.5 C 1.6 km/h
168 18-05-2021 15:55:00 11.8 C 9.89 g/m*3 11.8 C 0 km/h
169 18-05-2021 16:00:00 11.9 C 9.96 g/m*3 11.9 C 0 km/h
170 18-05-2021 16:05:00 12.1 C 10.08 g/m*3 12.1 C 0 km/h
171 18-05-2021 16:10:00 12.1 C 9.97 g/m*3 12.1 C 0 km/h
172 18-05-2021 16:15:00 12.2 C 10.04 g/m*3 12.2 C 1.6 km/h
173 18-05-2021 16:20:00 12.1 C 9.97 g/m*3 12.1 C 9.7 km/h
174 18-05-2021 16:25:00 11.9 C 9.74 g/m*3 11.9 C 6.4 km/h
175 18-05-2021 16:30:00 11.7 C 9.62 g/m*3 11.7 C 3.2 km/h
Sensor: Nr:Datum:Temp:Abs-Feuchte:Windchill:Wind:
Aussen-T/F 176 18-05-2021 16:35:00 11.6 C 9.56 g/m*3 11.6 C 1.6 km/h
177 18-05-2021 16:40:00 11.4 C 9.44 g/m*3 11.4 C 3.2 km/h
178 18-05-2021 16:45:00 11.3 C 9.49 g/m*3 11.3 C 1.6 km/h
179 18-05-2021 16:50:00 11.3 C 9.49 g/m*3 11.3 C 1.6 km/h
180 18-05-2021 16:55:00 11.6 C 9.77 g/m*3 11.6 C 4.8 km/h
181 18-05-2021 17:00:00 12.7 C 10.69 g/m*3 12.7 C 4.8 km/h
182 18-05-2021 17:05:00 13.3 C 10.98 g/m*3 13.3 C 9.7 km/h
183 18-05-2021 17:10:00 13.4 C 10.46 g/m*3 13.4 C 8.1 km/h
184 18-05-2021 17:15:00 13.4 C 10.46 g/m*3 13.4 C 3.2 km/h
185 18-05-2021 17:20:00 13.3 C 10.28 g/m*3 13.3 C 1.6 km/h
186 18-05-2021 17:25:00 13.2 C 10.33 g/m*3 13.2 C 3.2 km/h
187 18-05-2021 17:30:00 13.1 C 10.27 g/m*3 13.1 C 3.2 km/h
188 18-05-2021 17:35:00 12.7 C 9.68 g/m*3 12.7 C 6.4 km/h
189 18-05-2021 17:40:00 12.6 C 9.74 g/m*3 12.6 C 3.2 km/h
190 18-05-2021 17:45:00 12.4 C 9.62 g/m*3 12.4 C 9.7 km/h
191 18-05-2021 17:50:00 12.3 C 9.77 g/m*3 12.3 C 4.8 km/h
192 18-05-2021 17:55:00 12.2 C 9.71 g/m*3 12.2 C 8.1 km/h
193 18-05-2021 18:00:00 12.1 C 9.76 g/m*3 12.1 C 11.3 km/h
194 18-05-2021 18:05:00 11.9 C 9.64 g/m*3 11.9 C 17.7 km/h
195 18-05-2021 18:10:00 12.1 C 9.97 g/m*3 12.1 C 16.1 km/h
196 18-05-2021 18:15:00 12.8 C 10.53 g/m*3 12.8 C 11.3 km/h
197 18-05-2021 18:20:00 13.5 C 10.53 g/m*3 13.5 C 11.3 km/h
198 18-05-2021 18:25:00 14.2 C 10.87 g/m*3 14.2 C 4.8 km/h
199 18-05-2021 18:30:00 14.3 C 10.44 g/m*3 14.3 C 6.4 km/h
200 18-05-2021 18:35:00 14.4 C 10.63 g/m*3 14.4 C 6.4 km/h
Sensor: Nr:Datum:Temp:Abs-Feuchte:Windchill:Wind:
Aussen-T/F 201 18-05-2021 18:40:00 14.8 C 11.02 g/m*3 14.8 C 4.8 km/h
202 18-05-2021 18:45:00 14.9 C 10.83 g/m*3 14.9 C 1.6 km/h
203 18-05-2021 18:50:00 14.9 C 10.71 g/m*3 14.9 C 0 km/h
204 18-05-2021 18:55:00 14.8 C 10.39 g/m*3 14.8 C 1.6 km/h
205 18-05-2021 19:00:00 14.4 C 9.89 g/m*3 14.4 C 4.8 km/h
206 18-05-2021 19:05:00 14.1 C 10.07 g/m*3 14.1 C 1.6 km/h
207 18-05-2021 19:10:00 13.8 C 10.01 g/m*3 13.8 C 8.1 km/h
208 18-05-2021 19:15:00 12.9 C 9.02 g/m*3 12.9 C 24.1 km/h
209 18-05-2021 19:20:00 11.8 C 8.63 g/m*3 11.8 C 24.1 km/h
210 18-05-2021 19:25:00 10.8 C 8.4 g/m*3 9.38 C 11.3 km/h
211 18-05-2021 19:30:00 10.4 C 8.38 g/m*3 10.4 C 3.2 km/h
212 18-05-2021 19:35:00 10.3 C 8.52 g/m*3 9.34 C 8.1 km/h
213 18-05-2021 19:40:00 10.1 C 8.42 g/m*3 9.1 C 8.1 km/h
214 18-05-2021 19:45:00 9.9 C 8.4 g/m*3 8.87 C 8.1 km/h
215 18-05-2021 19:50:00 9.8 C 8.44 g/m*3 8.75 C 8.1 km/h
216 18-05-2021 19:55:00 9.7 C 8.39 g/m*3 9.7 C 4.8 km/h
217 18-05-2021 20:00:00 9.6 C 8.43 g/m*3 8.52 C 8.1 km/h
218 18-05-2021 20:05:00 9.6 C 8.43 g/m*3 8.91 C 6.4 km/h
219 18-05-2021 20:10:00 9.7 C 8.57 g/m*3 9.02 C 6.4 km/h
220 18-05-2021 20:15:00 9.7 C 8.57 g/m*3 9.7 C 4.8 km/h
221 18-05-2021 20:20:00 9.7 C 8.57 g/m*3 9.7 C 1.6 km/h

Legende:
   Min
   Max


Maximal/Minimal-Werte vom 14.04.2020 - 16.05.2020

Sensor Min Max Avg
Temp
(Aussen-T/F)
-0.1 °C
15-04-2020  06:55:00
26.2 °C
17-04-2020  18:05:00
11.98 °C

Die Daten stammen von einer Davis Vantage Pro 2 Wetter-Station und werden unter Linux mit der Software wview2wettercgi und aufbereitet. Alle Angaben erfolgen ohne Gewähr für ihre Vollständigkeit oder Richtigkeit.
Kontakt: Rainer Krienke krienke@uni-koblenz.de . Meine Webseiten an der Uni Koblenz oder privat.
Version: $Revision: 0.78 $